Weather History for Auburn, IN

Change the Weather History Date:

Friday, June 27, 2014

  Actual Average (KFWA) Record (KFWA)
Temperature  
Mean Temperature 73 °F 73 °F  
Max Temperature 86 °F 84 °F 99 °F (1944)
Min Temperature 60 °F 62 °F 41 °F (1902)
Degree Days  
Heating Degree Days 0 0  
Month to date heating degree days 29  
Since 1 June heating degree days 29  
Since 1 July heating degree days 6101  
Cooling Degree Days 8 8  
Month to date cooling degree days 157  
Year to date cooling degree days 214  
Since 1 June cooling degree days 157  
Growing Degree Days 23 (Base 50)    
Moisture  
Dew Point 62 °F    
Average Humidity 69    
Maximum Humidity 94    
Minimum Humidity 43    
Precipitation  
Precipitation 0.00 in 0.13 in 2.25 in (1957)
Month to date precipitation 3.81  
Year to date precipitation 18.61  
Snow  
Snow 0.00 in 0.00 in 0.00 in (2002)
Month to date snowfall 0.0  
Since 1 June snowfall 0.0  
Since 1 July snowfall 33.5  
Snow Depth -    
Sea Level Pressure  
Sea Level Pressure 30.09 in    
Wind  
Wind Speed 2 mph (ESE)    
Max Wind Speed 8 mph    
Max Gust Speed -    
Visibility 8 miles    
Events Fog    
T = Trace of Precipitation, MM = Missing Value Source: NWS Daily Summary

Daily Weather History Graph

Daily Weather History Graph

Search for Another Location

Airport:

Trip Planner

Search our weather history database for the weather conditions in past years. The results will help you decide how hot, cold, wet, or windy it might be!

Date:

Astronomy

Jun. 27, 2014 Rise Set
Actual Time 6:09 AM EDT 9:17 PM EDT
Civil Twilight 5:35 AM EDT 9:51 PM EDT
Nautical Twilight 4:51 AM EDT 10:34 PM EDT
Astronomical Twilight 4:00 AM EDT 11:26 PM EDT
Moon 6:39 AM EDT (6/27) 9:21 PM EDT (6/27)
Length of Visible Light 16h 16m
Length of Day
15h 08m
New Moon, 0% of the Moon is Illuminated
Jun 27
New Moon
Jul 5
First Quarter
Jul 12
Full
Jul 18
Last Quarter
Jul 26
New

Hourly Weather History & Observations

Time (EDT) Temp. Heat Index Dew Point Humidity Pressure Visibility Wind Dir Wind Speed Gust Speed Precip Events Conditions
12:15 AM 68.0 °F - 62.6 °F 83% 30.08 in 10.0 mi Calm Calm - N/A   Clear
12:35 AM 68.0 °F - 62.6 °F 83% 30.08 in 10.0 mi Calm Calm - N/A   Clear
12:55 AM 64.4 °F - 60.8 °F 88% 30.08 in 7.0 mi Calm Calm - N/A   Clear
1:15 AM 64.4 °F - 62.6 °F 94% 30.08 in 7.0 mi Calm Calm - N/A   Clear
1:35 AM 64.4 °F - 60.8 °F 88% 30.08 in 5.0 mi Calm Calm - N/A   Clear
1:55 AM 64.4 °F - 60.8 °F 88% 30.08 in 5.0 mi Calm Calm - N/A   Clear
2:15 AM 62.6 °F - 60.8 °F 94% 30.08 in 4.0 mi Calm Calm - N/A   Clear
2:35 AM 64.4 °F - 60.8 °F 88% 30.07 in 5.0 mi Calm Calm - N/A   Clear
2:55 AM 62.6 °F - 60.8 °F 94% 30.07 in 4.0 mi ENE 3.5 mph - N/A   Clear
3:15 AM 64.4 °F - 60.8 °F 88% 30.06 in 5.0 mi Calm Calm - N/A   Clear
3:35 AM 64.4 °F - 60.8 °F 88% 30.07 in 4.0 mi East 4.6 mph - N/A   Clear
3:55 AM 62.6 °F - 60.8 °F 94% 30.06 in 3.0 mi Calm Calm - N/A   Clear
4:15 AM 62.6 °F - 60.8 °F 94% 30.07 in 2.0 mi Calm Calm - N/A   Clear
4:35 AM 62.6 °F - 60.8 °F 94% 30.07 in 1.8 mi Calm Calm - N/A   Mist
4:55 AM 62.6 °F - 60.8 °F 94% 30.08 in 2.5 mi Calm Calm - N/A   Clear
5:15 AM 62.6 °F - 59.0 °F 88% 30.08 in 1.8 mi Calm Calm - N/A   Mist
5:35 AM 62.6 °F - 60.8 °F 94% 30.08 in 1.8 mi Calm Calm - N/A   Mist
5:55 AM 60.8 °F - 59.0 °F 94% 30.09 in 0.5 mi ENE 3.5 mph - N/A Fog Fog
6:15 AM 60.8 °F - 59.0 °F 94% 30.09 in 1.2 mi Calm Calm - N/A   Mist
6:35 AM 60.8 °F - 59.0 °F 94% 30.09 in 1.0 mi Calm Calm - N/A   Mist
6:55 AM 62.6 °F - 60.8 °F 94% 30.10 in 1.2 mi Calm Calm - N/A   Mist
7:15 AM 64.4 °F - 62.6 °F 94% 30.10 in 2.0 mi ENE 3.5 mph - N/A   Clear
7:35 AM 64.4 °F - 62.6 °F 94% 30.10 in 3.0 mi East 5.8 mph - N/A   Clear
7:55 AM 68.0 °F - 62.6 °F 83% 30.11 in 4.0 mi East 4.6 mph - N/A   Clear
8:15 AM 68.0 °F - 62.6 °F 83% 30.10 in 4.0 mi East 5.8 mph - N/A   Haze
8:35 AM 69.8 °F - 64.4 °F 83% 30.11 in 5.0 mi East 4.6 mph - N/A   Haze
8:55 AM 71.6 °F - 64.4 °F 78% 30.11 in 7.0 mi East 4.6 mph - N/A   Clear
9:15 AM 71.6 °F - 64.4 °F 78% 30.12 in 7.0 mi East 5.8 mph - N/A   Clear
9:35 AM 73.4 °F - 64.4 °F 73% 30.12 in 7.0 mi East 4.6 mph - N/A   Clear
9:55 AM 73.4 °F - 64.4 °F 73% 30.12 in 10.0 mi East 6.9 mph - N/A   Clear
10:15 AM 75.2 °F - 64.4 °F 69% 30.13 in 10.0 mi ESE 5.8 mph - N/A   Clear
10:35 AM 77.0 °F - 64.4 °F 65% 30.13 in 10.0 mi ESE 4.6 mph - N/A   Clear
10:55 AM 77.0 °F - 64.4 °F 65% 30.13 in 10.0 mi ESE 5.8 mph - N/A   Clear
11:15 AM 78.8 °F - 64.4 °F 61% 30.13 in 10.0 mi ESE 6.9 mph - N/A   Clear
11:35 AM 78.8 °F - 62.6 °F 57% 30.12 in 10.0 mi ESE 6.9 mph - N/A   Clear
11:55 AM 80.6 °F 81.8 °F 62.6 °F 54% 30.12 in 10.0 mi ESE 3.5 mph - N/A   Clear
12:15 PM 80.6 °F 81.8 °F 62.6 °F 54% 30.12 in 10.0 mi ESE 5.8 mph - N/A   Clear
12:35 PM 82.4 °F 83.4 °F 62.6 °F 51% 30.11 in 10.0 mi ESE 4.6 mph - N/A   Clear
12:55 PM 82.4 °F 83.4 °F 62.6 °F 51% 30.11 in 10.0 mi ESE 3.5 mph - N/A   Clear
1:15 PM 82.4 °F 83.4 °F 62.6 °F 51% 30.11 in 10.0 mi SSE 4.6 mph - N/A   Clear
1:35 PM 82.4 °F 83.4 °F 62.6 °F 51% 30.11 in 10.0 mi East 4.6 mph - N/A   Scattered Clouds
1:55 PM 82.4 °F 82.9 °F 60.8 °F 48% 30.11 in 10.0 mi ESE 3.5 mph - N/A   Scattered Clouds
2:15 PM 84.2 °F 84.4 °F 60.8 °F 45% 30.10 in 10.0 mi ESE 4.6 mph - N/A   Clear
2:35 PM 84.2 °F 84.4 °F 60.8 °F 45% 30.10 in 10.0 mi Calm Calm - N/A   Clear
2:55 PM 84.2 °F 85.0 °F 62.6 °F 48% 30.09 in 10.0 mi East 8.1 mph - N/A   Clear
3:15 PM 86.0 °F 86.1 °F 60.8 °F 43% 30.09 in 10.0 mi East 4.6 mph - N/A   Clear
3:55 PM 86.0 °F 86.6 °F 62.6 °F 45% 30.09 in 10.0 mi East 6.9 mph - N/A   Scattered Clouds
4:15 PM 86.0 °F 86.1 °F 60.8 °F 43% 30.08 in 10.0 mi ESE 6.9 mph - N/A   Mostly Cloudy
4:35 PM 86.0 °F 86.1 °F 60.8 °F 43% 30.08 in 10.0 mi East 8.1 mph - N/A   Scattered Clouds
4:55 PM 86.0 °F 86.1 °F 60.8 °F 43% 30.09 in 10.0 mi SE 5.8 mph - N/A   Scattered Clouds
5:15 PM 86.0 °F 86.1 °F 60.8 °F 43% 30.08 in 10.0 mi Calm Calm - N/A   Scattered Clouds
5:35 PM 84.2 °F 84.4 °F 60.8 °F 45% 30.08 in 10.0 mi ESE 4.6 mph - N/A   Clear
5:55 PM 84.2 °F 84.4 °F 60.8 °F 45% 30.07 in 10.0 mi ESE 6.9 mph - N/A   Scattered Clouds
6:15 PM 84.2 °F 84.4 °F 60.8 °F 45% 30.07 in 10.0 mi East 8.1 mph - N/A   Scattered Clouds
6:35 PM 84.2 °F 84.4 °F 60.8 °F 45% 30.06 in 10.0 mi East 8.1 mph - N/A   Clear
6:55 PM 84.2 °F 84.4 °F 60.8 °F 45% 30.06 in 10.0 mi East 5.8 mph - N/A   Clear
7:15 PM 82.4 °F 82.5 °F 59.0 °F 45% 30.06 in 10.0 mi ESE 4.6 mph - N/A   Clear
7:35 PM 82.4 °F 82.9 °F 60.8 °F 48% 30.07 in 10.0 mi ESE 3.5 mph - N/A   Clear
7:55 PM 82.4 °F 82.9 °F 60.8 °F 48% 30.07 in 10.0 mi ESE 3.5 mph - N/A   Clear
8:15 PM 80.6 °F 81.5 °F 60.8 °F 51% 30.06 in 10.0 mi ESE 3.5 mph - N/A   Clear
8:35 PM 78.8 °F - 62.6 °F 57% 30.06 in 10.0 mi Calm Calm - N/A   Clear
8:55 PM 77.0 °F - 62.6 °F 61% 30.07 in 10.0 mi Calm Calm - N/A   Clear
9:15 PM 77.0 °F - 62.6 °F 61% 30.07 in 10.0 mi Calm Calm - N/A   Clear
9:35 PM 73.4 °F - 62.6 °F 69% 30.07 in 10.0 mi Calm Calm - N/A   Clear
9:55 PM 73.4 °F - 62.6 °F 69% 30.08 in 10.0 mi Calm Calm - N/A   Clear
10:15 PM 71.6 °F - 62.6 °F 73% 30.08 in 10.0 mi Calm Calm - N/A   Clear
10:35 PM 71.6 °F - 62.6 °F 73% 30.08 in 10.0 mi Calm Calm - N/A   Clear
10:55 PM 71.6 °F - 62.6 °F 73% 30.09 in 10.0 mi East 3.5 mph - N/A   Clear
11:15 PM 71.6 °F - 62.6 °F 73% 30.09 in 10.0 mi Calm Calm - N/A   Clear
11:35 PM 71.6 °F - 62.6 °F 73% 30.09 in 10.0 mi East 5.8 mph - N/A   Clear
11:55 PM 71.6 °F - 62.6 °F 73% 30.09 in 10.0 mi East 5.8 mph - N/A   Clear